Regional Weather Roundup
Issued by NWS

Home | Current Version | Previous Version | Text Only | Print | Product List | Glossary Off
Versions: 1 2 3 4 5 6 7 8 9 10 11 12 13 14 15 16 17 18 19 20 21 22 23 24 25 26 27 28 29 30 31 32 33 34 35 36 37 38 39 40 41 42 43 44 45 46 47 48 49 50

000
ASUS43 KIND 232009
RWRIN

WEATHER ROUNDUP FOR INDIANA
NATIONAL WEATHER SERVICE INDIANAPOLIS IN
300 PM EST MON JAN 23 2017

NOTE: "FAIR" INDICATES FEW OR NO CLOUDS BELOW 12,000 FEET WITH NO
SIGNIFICANT WEATHER AND/OR OBSTRUCTIONS TO VISIBILITY.

* - STATION DOES NOT REPORT WEATHER SUCH AS PRECIPITATION OR FOG.

+ - STATION NOT QUALITY CONTROLLED BY THE NATIONAL WEATHER SERVICE.
    USE DATA WITH CAUTION...ESPECIALLY DEWPOINT AND RELATIVE
    HUMIDITY OBSERVATIONS.

INZ001>003-010>013-019-020-232100-
NORTHWEST INDIANA

CITY           SKY/WX    TMP DP  RH WIND       PRES   REMARKS
GARY /AIRPORT/ CLOUDY    41  37  87 NW14      29.74F FOG
KNOX *+        CLOUDY    37  27  65 N15       29.70S
LA PORTE +     CLOUDY    37  37  97 N14G24    29.71R
MICHIGAN CITY+ CLOUDY    37  37 100 N8        29.72S
MONTICELLO +   CLOUDY    40  37  88 NW13      29.68S
RENSSELAER +   CLOUDY    41  37  87 NW10G18   29.71R
VALPARAISO     CLOUDY    41  37  86 N13G21    29.71S

$$

LMZ046-743>745-232100-
SOUTHERN LAKE MICHIGAN

STATION/POSITION TIME  TEMP    WIND        PRES    WAVE
                       AIR SEA DIR/SP/G            HT
                 (UTC) (F)     (DEG/KT/KT) (MB)    (FT)
BURNS HARBOR     1940   36     340/  7/  9 1007.1F
MICHIGAN CITY    1940   36     330/ 12/ 13   N/A

$$

INZ004-005-014>016-021>024-232100-
NORTH CENTRAL INDIANA

CITY           SKY/WX    TMP DP  RH WIND       PRES   REMARKS
ELKHART        CLOUDY    39  37  93 NW12      29.68S FOG
GOSHEN         CLOUDY    41  39  93 N14       29.66S FOG
LOGANSPORT +   CLOUDY    41  37  87 N12G17    29.68S
PERU/GRISSOM   DRIZZLE   41  41 100 NW15      29.65R FOG
ROCHESTER +    CLOUDY    41  41 100 NW13      29.68S FOG
SOUTH BEND     CLOUDY    38  37  97 N13       29.70R FOG
WARSAW +       LGT RAIN  41  41 100 N9        29.66S

$$

INZ006>009-017-018-025>027-232100-
NORTHEAST INDIANA

CITY           SKY/WX    TMP DP  RH WIND       PRES   REMARKS
ANGOLA *+      CLOUDY    41  32  70 N7        29.63S
AUBURN +       RAIN      43  41  93 N7        29.64R
FORT WAYNE     LGT RAIN  45  42  89 N8        29.63R
HUNTINGTON +   CLOUDY    44  42  95 N7        29.63R
KENDALLVILLE + RAIN      42  42 100 N8        29.64S

$$

INZ028-029-035-036-043>045-051>053-232100-
WEST CENTRAL INDIANA

CITY           SKY/WX    TMP DP  RH WIND       PRES   REMARKS
CRAWFORDSVL +  CLOUDY    40  40 100 NW12      29.69R
GREENCASTLE +  CLOUDY    41  37  87 N9        29.68R
LAFAYETTE      CLOUDY    41  37  86 NW17G23   29.69S
TERRE HAUTE    CLOUDY    42  36  79 NW12      29.71R

$$

INZ030>032-037>040-046>048-054>057-064-065-232100-
CENTRAL INDIANA

CITY           SKY/WX    TMP DP  RH WIND       PRES   REMARKS
ANDERSON       CLOUDY    43  43 100 NW12      29.62S FOG
CP ATTERBURY + CLOUDY    43  41  93 NW15G22   29.64R
FISHERS *+     CLOUDY    39  39 100 N9G16     29.65
FRANKFORT +    CLOUDY    42  40  92 N15       29.68S FOG
GREENWOOD *+   CLOUDY    43  42  99 NW13G18   29.64S
INDIANAPOLIS   CLOUDY    42  40  92 N16       29.65S FOG
-EAGLE CREEK   CLOUDY    42  39  89 N13G22    29.64S
KOKOMO +       CLOUDY    41  39  93 NW14      29.67R FOG
MARION +       CLOUDY    43  43 100 N12       29.64S FOG
MT COMFORT *+  CLOUDY    41  41 100 NW12G20   29.63S
SHELBYVILLE    CLOUDY    44  41  89 NW17      29.61S FOG
ZIONSVILLE +   CLOUDY    40  39  97 N12       29.66R FOG

$$

INZ033-034-041-042-049-050-058-059-232100-
EAST CENTRAL INDIANA

CITY           SKY/WX    TMP DP  RH WIND       PRES   REMARKS
MUNCIE         CLOUDY    46  44  93 N18       29.60S FOG

$$

INZ060-061-067>069-081>083-085>088-232100-
SOUTHWEST INDIANA

CITY           SKY/WX    TMP DP  RH WIND       PRES   REMARKS
EVANSVILLE     CLOUDY    43  35  73 NW12G22   29.72S
HUNTINGBURG *+ CLOUDY    43  39  87 NW13      29.68R
WASHINGTON +   CLOUDY    42  38  86 NW16G22   29.70R

$$

INZ062-063-066-070>080-084-089>092-232100-
SOUTH CENTRAL AND SOUTHEAST INDIANA

CITY           SKY/WX    TMP DP  RH WIND       PRES   REMARKS
BLOOMINGTON    CLOUDY    43  38  82 N10       29.65S
MADISON *+     CLOUDY    45  43  93 NW10G22   29.60S
NORTH VERNON + CLOUDY   N/A N/A N/A NW15G23   29.60S HAZE
SEYMOUR +      CLOUDY    46  43  87 NW17      29.63R FOG

$$





USA.gov is the U.S. government's official web portal to all federal, state and local government web resources and services.